Weather History for KPNM - September, 2013

Change the Weather History Date:

Wednesday, September 18, 2013

  Actual Average Record
Temperature  
Mean Temperature 67 °F -  
Max Temperature 75 °F 67 °F 87 °F (1998)
Min Temperature 59 °F 44 °F 33 °F (2001)
Cooling Degree Days 2    
Growing Degree Days 17 (Base 50)    
Moisture  
Dew Point 64 °F    
Average Humidity 90    
Maximum Humidity 100    
Minimum Humidity 73    
Precipitation  
Precipitation 0.01 in - - ()
Sea Level Pressure  
Sea Level Pressure 29.79 in    
Wind  
Wind Speed 6 mph (SE)    
Max Wind Speed 9 mph    
Max Gust Speed -    
Visibility 4 miles    
Events Rain    
Averages and records for this station are not official NWS values.
T = Trace of Precipitation, MM = Missing Value Source: NWS Daily Summary

Daily Weather History Graph

Daily Weather History Graph

Search for Another Location

Airport or City:

Trip Planner

Search our weather history database for the weather conditions in past years. The results will help you decide how hot, cold, wet, or windy it might be!

Date:

Astronomy

Sep. 18, 2013 Rise Set
Actual Time 6:56 AM CDT 7:19 PM CDT
Civil Twilight 6:27 AM CDT 7:48 PM CDT
Nautical Twilight 5:52 AM CDT 8:23 PM CDT
Astronomical Twilight 5:15 AM CDT 8:59 PM CDT
Moon 6:41 PM CDT (9/18) 5:59 AM CDT (9/18)
Length of Visible Light 13h 21m
Length of Day
12h 22m
Waxing Gibbous, 99% of the Moon is Illuminated
Sep 18
Waxing Gibbous
Sep 19
Full
Sep 26
Last Quarter
Oct 4
New
Oct 11
First Quarter

Hourly Weather History & Observations

Time (CDT) Temp. Dew Point Humidity Pressure Visibility Wind Dir Wind Speed Gust Speed Precip Events Conditions
12:13 AM 59.0 °F 57.2 °F 94% 29.94 in 4.0 mi SE 5.8 mph - N/A   Overcast
12:33 AM 59.0 °F 57.2 °F 94% 29.94 in 4.0 mi SSE 6.9 mph - N/A   Overcast
12:54 AM 59.0 °F 57.2 °F 94% 29.93 in 3.0 mi SE 5.8 mph - N/A   Light Drizzle
1:13 AM 59.0 °F 57.2 °F 94% 29.92 in 4.0 mi SE 5.8 mph - N/A   Overcast
1:33 AM 59.0 °F 57.2 °F 94% 29.92 in 2.5 mi SE 5.8 mph - N/A   Drizzle
1:54 AM 59.0 °F 57.2 °F 94% 29.91 in 3.0 mi SE 5.8 mph - N/A   Overcast
2:13 AM 59.0 °F 57.2 °F 94% 29.90 in 3.0 mi SE 6.9 mph - 0.01 in   Overcast
2:33 AM 60.8 °F 57.2 °F 88% 29.90 in 2.5 mi SE 5.8 mph - 0.01 in   Overcast
2:53 AM 60.8 °F 57.2 °F 88% 29.89 in 2.5 mi SE 6.9 mph - 0.01 in   Overcast
3:13 AM 60.8 °F 57.2 °F 88% 29.88 in 2.5 mi SE 6.9 mph - N/A   Overcast
3:33 AM 60.8 °F 57.2 °F 88% 29.88 in 2.5 mi SE 5.8 mph - N/A   Overcast
3:53 AM 60.8 °F 59.0 °F 94% 29.87 in 2.5 mi ESE 4.6 mph - N/A   Overcast
4:13 AM 60.8 °F 59.0 °F 94% 29.87 in 2.0 mi ESE 5.8 mph - N/A   Overcast
4:33 AM 60.8 °F 59.0 °F 94% 29.85 in 1.2 mi ESE 4.6 mph - N/A Rain Light Rain
4:53 AM 60.8 °F 59.0 °F 94% 29.85 in 1.0 mi ESE 5.8 mph - N/A Rain Light Rain
5:13 AM 60.8 °F 59.0 °F 94% 29.84 in 1.0 mi ESE 5.8 mph - N/A   Overcast
5:33 AM 60.8 °F 59.0 °F 94% 29.84 in 1.0 mi ESE 4.6 mph - N/A   Overcast
5:53 AM 60.8 °F 60.8 °F 100% 29.84 in 1.0 mi ESE 4.6 mph - N/A   Overcast
6:13 AM 60.8 °F 60.8 °F 100% 29.83 in 1.0 mi ESE 5.8 mph - N/A Rain Light Rain
6:33 AM 60.8 °F 60.8 °F 100% 29.83 in 1.2 mi ESE 4.6 mph - N/A   Light Drizzle
6:53 AM 60.8 °F 60.8 °F 100% 29.83 in 1.2 mi ESE 3.5 mph - N/A   Overcast
7:13 AM 62.6 °F 60.8 °F 94% 29.83 in 1.5 mi ESE 3.5 mph - N/A   Light Drizzle
7:33 AM 62.6 °F 60.8 °F 94% 29.83 in 1.8 mi ESE 6.9 mph - N/A   Light Drizzle
7:53 AM 62.6 °F 60.8 °F 94% 29.82 in 2.0 mi ESE 6.9 mph - N/A   Overcast
8:13 AM 62.6 °F 60.8 °F 94% 29.82 in 3.0 mi SE 5.8 mph - N/A   Light Drizzle
8:33 AM 62.6 °F 62.6 °F 100% 29.82 in 1.8 mi ESE 5.8 mph - N/A   Drizzle
8:53 AM 64.4 °F 62.6 °F 94% 29.82 in 2.0 mi SE 4.6 mph - N/A   Light Drizzle
9:13 AM 64.4 °F 62.6 °F 94% 29.82 in 2.5 mi SE 6.9 mph - N/A   Overcast
9:33 AM 64.4 °F 62.6 °F 94% 29.83 in 3.0 mi SE 8.1 mph - N/A   Overcast
9:53 AM 66.2 °F 64.4 °F 94% 29.83 in 3.0 mi SE 8.1 mph - N/A   Overcast
10:13 AM 66.2 °F 64.4 °F 94% 29.82 in 2.5 mi SE 6.9 mph - N/A   Overcast
10:33 AM 66.2 °F 64.4 °F 94% 29.82 in 2.0 mi SE 6.9 mph - N/A   Overcast
10:53 AM 66.2 °F 64.4 °F 94% 29.81 in 2.5 mi SE 5.8 mph - N/A   Overcast
11:14 AM 66.2 °F 64.4 °F 94% 29.81 in 2.5 mi SE 9.2 mph - N/A   Overcast
11:33 AM 68.0 °F 66.2 °F 94% 29.80 in 2.5 mi SSE 6.9 mph - N/A   Overcast
11:53 AM 68.0 °F 66.2 °F 94% 29.78 in 3.0 mi SE 6.9 mph - N/A   Overcast
12:14 PM 69.8 °F 66.2 °F 88% 29.78 in 4.0 mi SSE 8.1 mph - N/A   Overcast
12:33 PM 69.8 °F 66.2 °F 88% 29.78 in 4.0 mi SE 9.2 mph - N/A   Overcast
12:53 PM 69.8 °F 66.2 °F 88% 29.77 in 5.0 mi SE 8.1 mph - N/A   Overcast
1:13 PM 71.6 °F 66.2 °F 83% 29.77 in 5.0 mi SE 6.9 mph - N/A   Overcast
1:33 PM 71.6 °F 66.2 °F 83% 29.76 in 5.0 mi SE 9.2 mph - N/A   Overcast
1:53 PM 71.6 °F 66.2 °F 83% 29.75 in 5.0 mi SE 5.8 mph - N/A   Overcast
2:13 PM 71.6 °F 66.2 °F 83% 29.75 in 5.0 mi SE 8.1 mph - N/A   Haze
2:33 PM 71.6 °F 68.0 °F 88% 29.75 in 5.0 mi SE 8.1 mph - N/A   Overcast
2:53 PM 71.6 °F 68.0 °F 88% 29.74 in 5.0 mi SE 5.8 mph - N/A   Overcast
3:13 PM 71.6 °F 68.0 °F 88% 29.74 in 5.0 mi ESE 8.1 mph - N/A   Overcast
3:33 PM 73.4 °F 68.0 °F 83% 29.74 in 5.0 mi SE 6.9 mph - N/A   Haze
3:53 PM 73.4 °F 68.0 °F 83% 29.73 in 7.0 mi SE 6.9 mph - N/A   Overcast
4:13 PM 73.4 °F 68.0 °F 83% 29.72 in 10.0 mi SSE 6.9 mph - N/A   Overcast
4:33 PM 73.4 °F 66.2 °F 78% 29.72 in 10.0 mi SSE 8.1 mph - N/A   Overcast
4:53 PM 75.2 °F 66.2 °F 73% 29.72 in 10.0 mi SE 5.8 mph - N/A   Overcast
5:13 PM 73.4 °F 68.0 °F 83% 29.72 in 7.0 mi ESE 8.1 mph - N/A   Overcast
5:33 PM 73.4 °F 68.0 °F 83% 29.72 in 7.0 mi SE 8.1 mph - N/A   Overcast
5:53 PM 73.4 °F 68.0 °F 83% 29.72 in 10.0 mi SE 5.8 mph - N/A   Overcast
6:13 PM 73.4 °F 66.2 °F 78% 29.71 in 7.0 mi ESE 6.9 mph - N/A   Overcast
6:33 PM 73.4 °F 66.2 °F 78% 29.71 in 7.0 mi ESE 9.2 mph - N/A   Overcast
6:53 PM 71.6 °F 66.2 °F 83% 29.71 in 5.0 mi ESE 9.2 mph - N/A   Haze
7:13 PM 71.6 °F 66.2 °F 83% 29.71 in 5.0 mi ESE 5.8 mph - N/A   Clear
7:33 PM 69.8 °F 66.2 °F 88% 29.71 in 5.0 mi ESE 6.9 mph - N/A   Clear
7:53 PM 69.8 °F 66.2 °F 88% 29.71 in 5.0 mi ESE 9.2 mph - N/A   Clear
8:13 PM 69.8 °F 66.2 °F 88% 29.71 in 5.0 mi ESE 6.9 mph - N/A   Clear
8:33 PM 69.8 °F 66.2 °F 88% 29.71 in 4.0 mi ESE 5.8 mph - N/A   Clear
8:53 PM 69.8 °F 66.2 °F 88% 29.72 in 4.0 mi ESE 6.9 mph - N/A   Clear
9:13 PM 69.8 °F 66.2 °F 88% 29.72 in 4.0 mi ESE 6.9 mph - N/A   Clear
9:33 PM 69.8 °F 66.2 °F 88% 29.72 in 4.0 mi ESE 6.9 mph - N/A   Clear
9:53 PM 69.8 °F 66.2 °F 88% 29.71 in 4.0 mi ESE 6.9 mph - N/A   Clear
10:13 PM 69.8 °F 66.2 °F 88% 29.71 in 4.0 mi ESE 6.9 mph - N/A   Clear
10:33 PM 69.8 °F 66.2 °F 88% 29.70 in 4.0 mi SE 9.2 mph - N/A   Clear
10:53 PM 69.8 °F 66.2 °F 88% 29.70 in 4.0 mi SE 9.2 mph - N/A   Clear
11:13 PM 69.8 °F 66.2 °F 88% 29.71 in 5.0 mi SE 8.1 mph - N/A   Clear
11:33 PM 69.8 °F 66.2 °F 88% 29.71 in 5.0 mi SE 5.8 mph - N/A   Clear
11:53 PM 69.8 °F 66.2 °F 88% 29.70 in 4.0 mi SE 5.8 mph - N/A   Clear